sat.trackr.live / text

‹ back to catalog

KUIPER-00041

NORAD 64502 · 2025-134C

PAYLOAD ACTIVE UNKNOWN

§ Identity

Operator
Country
US
Launch date
2025-06-23
Launch site
AFETR
Launch vehicle
Mass (kg)
RCS (m²)

External: N2YO · Heavens-Above · Gunter

§ Orbital elements

Epoch: 2026-05-25T01:27:14.052384Z

Period
97.30 min
Inclination
51.9000°
Eccentricity
0.0000342
Mean motion
14.79938238 rev/d
Perigee alt
629.3 km
Apogee alt
629.8 km
Semi-major
7,007.7 km
B*
9.1839e-5
RAAN
267.8657°
Arg perigee
146.7406°
Mean anomaly
213.3578°
Rev number
5,120

§ Raw data

KUIPER-000411 64502U 25134C   26145.06057931  .00000479  00000+0  91839-4 0  99942 64502  51.9000 267.8657 0000342 146.7406 213.3578 14.79938238 51203

JSON: /api/v1/satellites/64502 · /tle

For live sub-satellite position, see the globe view (requires WebGL).

§ Visibility from observer

Set your observer location to see the next 7 days of passes ≥ 10°. The values pass through the URL so the page stays shareable.

No JS? Fill the form by hand. The geolocation button needs JavaScript.